Retour au catalogue

FENGYUN 1C DEB

ActifSSO
NORAD 33636·DEBRIS·🇨🇳 China

Lancé May 10, 1999 depuis Taiyuan Satellite Launch Center

Loading…

Prochains Passages (prochaines 24 heures)

TLE

FraisSource: Space-Track

Époque: Sep 13, 2026, 06:23 UTC

1 33636U 99025DDV 26256.26620578  .00001015  00000-0  38906-3 0  9999
2 33636  98.4561 269.7854 0065794   6.5018  53.0317 14.31461168739944

Suivez FENGYUN 1C DEB en temps réel avec AllMySat

Download on the App Store